TimeEDT,TemperatureF,Dew PointF,Humidity,Sea Level PressureIn,VisibilityMPH,Wind Direction,Wind SpeedMPH,Gust SpeedMPH,PrecipitationIn,Events,Conditions,WindDirDegrees,DateUTC
12:14 AM,31.1,30.4,97,29.48,5.0,SSW,4.6,-,N/A,,Overcast,200,2013-03-19 04:14:00
12:34 AM,31.1,30.6,98,29.48,7.0,SSW,8.1,-,N/A,,Overcast,210,2013-03-19 04:34:00
12:54 AM,31.1,30.4,97,29.48,7.0,SW,8.1,-,N/A,,Overcast,220,2013-03-19 04:54:00
1:15 AM,31.3,30.6,97,29.47,10.0,SW,10.4,-,N/A,,Overcast,230,2013-03-19 05:15:00
1:34 AM,31.3,30.2,96,29.47,10.0,SW,11.5,-,N/A,,Overcast,230,2013-03-19 05:34:00
1:54 AM,31.6,30.2,94,29.47,10.0,SW,11.5,-,N/A,,Overcast,220,2013-03-19 05:54:00
2:15 AM,31.6,30.0,94,29.47,10.0,SW,12.7,-,N/A,,Overcast,230,2013-03-19 06:15:00
2:34 AM,31.8,30.0,93,29.47,10.0,SW,13.8,-,N/A,,Overcast,230,2013-03-19 06:34:00
2:54 AM,32.0,29.8,92,29.47,10.0,SW,12.7,-,N/A,,Overcast,230,2013-03-19 06:54:00
3:15 AM,32.0,29.8,92,29.47,10.0,SW,10.4,-,N/A,,Overcast,220,2013-03-19 07:15:00
3:34 AM,32.0,29.7,91,29.47,10.0,SW,10.4,-,N/A,,Overcast,230,2013-03-19 07:34:00
3:54 AM,31.8,29.3,90,29.48,10.0,SW,10.4,-,N/A,,Overcast,220,2013-03-19 07:54:00
4:15 AM,31.8,29.3,90,29.48,10.0,SSW,10.4,-,N/A,,Overcast,210,2013-03-19 08:15:00
4:34 AM,31.8,29.3,90,29.48,10.0,SSW,9.2,-,N/A,,Overcast,210,2013-03-19 08:34:00
4:54 AM,31.8,29.8,92,29.48,7.0,SSW,10.4,-,N/A,Snow,Light Snow,210,2013-03-19 08:54:00
5:15 AM,31.5,29.3,92,29.48,3.0,SW,25.3,31.1,N/A,Snow,Light Snow,230,2013-03-19 09:15:00
5:34 AM,30.0,27.0,88,29.49,5.0,SW,18.4,32.2,N/A,,Overcast,220,2013-03-19 09:34:00
5:54 AM,28.4,25.0,87,29.50,4.0,WSW,21.9,34.5,N/A,,Overcast,240,2013-03-19 09:54:00
6:15 AM,27.9,24.4,87,29.51,10.0,SW,17.3,28.8,N/A,,Overcast,230,2013-03-19 10:15:00
6:34 AM,26.6,22.6,85,29.52,7.0,SW,20.7,26.5,N/A,Snow,Light Snow,230,2013-03-19 10:34:00
6:54 AM,25.7,21.7,85,29.53,7.0,SW,21.9,31.1,N/A,Snow,Light Snow,230,2013-03-19 10:54:00
7:14 AM,24.8,20.1,82,29.54,5.0,WSW,23.0,31.1,N/A,Snow,Light Snow,240,2013-03-19 11:14:00
7:34 AM,24.3,18.3,78,29.54,7.0,SW,24.2,31.1,N/A,,Overcast,230,2013-03-19 11:34:00
7:54 AM,23.0,16.5,76,29.55,7.0,SW,21.9,32.2,N/A,Snow,Light Snow,230,2013-03-19 11:54:00
8:14 AM,21.9,16.7,80,29.56,5.0,WSW,19.6,-,N/A,Snow,Light Snow,240,2013-03-19 12:14:00
8:34 AM,21.2,15.4,78,29.57,10.0,SW,20.7,25.3,N/A,,Overcast,230,2013-03-19 12:34:00
8:54 AM,21.2,15.3,78,29.57,7.0,SW,18.4,27.6,N/A,Snow,Light Snow,230,2013-03-19 12:54:00
9:14 AM,21.2,14.9,77,29.57,7.0,SW,19.6,28.8,N/A,,Mostly Cloudy,230,2013-03-19 13:14:00
9:34 AM,21.6,15.3,77,29.57,10.0,SW,17.3,26.5,N/A,,Scattered Clouds,230,2013-03-19 13:34:00
9:54 AM,22.1,15.4,76,29.57,10.0,SW,18.4,25.3,N/A,,Scattered Clouds,230,2013-03-19 13:54:00
10:14 AM,22.6,15.6,74,29.57,7.0,SW,21.9,28.8,N/A,,Mostly Cloudy,230,2013-03-19 14:14:00
10:34 AM,23.0,16.3,76,29.56,7.0,WSW,21.9,29.9,N/A,Snow,Light Snow,240,2013-03-19 14:34:00
10:55 AM,23.4,16.0,73,29.57,7.0,WSW,23.0,29.9,N/A,,Overcast,240,2013-03-19 14:55:00
11:14 AM,23.9,16.3,73,29.57,7.0,WSW,18.4,26.5,N/A,Snow,Light Snow,240,2013-03-19 15:14:00
11:34 AM,23.9,17.1,75,29.57,5.0,WSW,23.0,28.8,N/A,Snow,Light Snow,240,2013-03-19 15:34:00
11:55 AM,23.9,16.7,74,29.57,5.0,WSW,20.7,28.8,N/A,Snow,Light Snow,240,2013-03-19 15:55:00
12:14 PM,24.1,17.4,76,29.58,4.0,WSW,23.0,29.9,N/A,Snow,Light Snow,240,2013-03-19 16:14:00
12:34 PM,24.4,16.9,73,29.58,5.0,WSW,23.0,29.9,N/A,Snow,Light Snow,250,2013-03-19 16:34:00
12:55 PM,25.2,17.6,73,29.58,5.0,WSW,19.6,24.2,N/A,Snow,Light Snow,250,2013-03-19 16:55:00
1:14 PM,25.3,17.2,71,29.59,7.0,West,19.6,28.8,N/A,Snow,Light Snow,260,2013-03-19 17:14:00
1:34 PM,25.5,17.1,70,29.59,7.0,WSW,18.4,28.8,N/A,,Overcast,240,2013-03-19 17:34:00
1:55 PM,26.6,17.1,67,29.59,10.0,WSW,24.2,31.1,N/A,,Overcast,250,2013-03-19 17:55:00
2:14 PM,26.6,17.2,68,29.60,10.0,WSW,23.0,27.6,N/A,,Overcast,250,2013-03-19 18:14:00
2:34 PM,26.6,17.4,68,29.60,7.0,West,23.0,31.1,N/A,,Overcast,260,2013-03-19 18:34:00
2:54 PM,28.0,18.0,66,29.61,7.0,West,24.2,28.8,N/A,,Overcast,260,2013-03-19 18:54:00
3:14 PM,27.5,17.1,65,29.61,7.0,WSW,23.0,28.8,N/A,,Overcast,250,2013-03-19 19:14:00
3:34 PM,27.3,18.5,69,29.62,10.0,WSW,21.9,27.6,N/A,,Overcast,250,2013-03-19 19:34:00
3:54 PM,27.5,18.7,69,29.63,10.0,WSW,20.7,27.6,N/A,,Overcast,250,2013-03-19 19:54:00
4:14 PM,27.3,18.5,69,29.64,10.0,WSW,19.6,26.5,N/A,,Overcast,250,2013-03-19 20:14:00
4:34 PM,28.4,17.1,63,29.66,10.0,West,21.9,27.6,N/A,,Overcast,260,2013-03-19 20:34:00
4:54 PM,28.0,16.5,62,29.67,10.0,West,23.0,26.5,N/A,,Overcast,270,2013-03-19 20:54:00
5:14 PM,27.9,16.7,63,29.68,10.0,West,19.6,28.8,N/A,,Overcast,260,2013-03-19 21:14:00
5:34 PM,27.9,17.8,66,29.68,10.0,West,25.3,29.9,N/A,,Overcast,260,2013-03-19 21:34:00
5:54 PM,27.5,17.1,65,29.69,10.0,West,17.3,24.2,N/A,,Overcast,260,2013-03-19 21:54:00
6:14 PM,26.2,18.5,73,29.71,7.0,West,17.3,32.2,N/A,,Overcast,260,2013-03-19 22:14:00
6:34 PM,26.1,18.7,74,29.72,7.0,WSW,19.6,-,N/A,Snow,Light Snow,250,2013-03-19 22:34:00
6:54 PM,26.4,16.9,67,29.73,10.0,West,23.0,31.1,N/A,,Overcast,260,2013-03-19 22:54:00
7:14 PM,25.0,17.6,74,29.74,10.0,WSW,15.0,-,N/A,,Overcast,250,2013-03-19 23:14:00
7:34 PM,24.4,17.2,74,29.74,10.0,WSW,18.4,21.9,N/A,,Mostly Cloudy,250,2013-03-19 23:34:00
7:54 PM,23.9,16.5,73,29.75,10.0,WSW,12.7,18.4,N/A,,Mostly Cloudy,250,2013-03-19 23:54:00
8:14 PM,23.5,16.5,75,29.76,10.0,WSW,15.0,-,N/A,,Overcast,250,2013-03-20 00:14:00
8:34 PM,23.7,17.6,77,29.76,10.0,WSW,16.1,-,N/A,,Overcast,250,2013-03-20 00:34:00
8:54 PM,23.0,18.1,82,29.76,10.0,WSW,11.5,-,N/A,,Overcast,240,2013-03-20 00:54:00
9:14 PM,23.0,18.3,82,29.77,10.0,WSW,11.5,-,N/A,,Overcast,240,2013-03-20 01:14:00
9:34 PM,23.4,18.1,80,29.77,10.0,SW,11.5,-,N/A,,Overcast,230,2013-03-20 01:34:00
9:54 PM,23.5,17.6,78,29.77,10.0,WSW,12.7,-,N/A,,Overcast,240,2013-03-20 01:54:00
10:14 PM,23.7,18.0,79,29.77,10.0,WSW,16.1,-,N/A,,Overcast,250,2013-03-20 02:14:00
10:34 PM,23.7,18.1,79,29.77,10.0,WSW,13.8,-,N/A,,Overcast,250,2013-03-20 02:34:00
10:54 PM,23.2,18.1,81,29.78,10.0,WSW,12.7,-,N/A,,Overcast,250,2013-03-20 02:54:00
11:14 PM,23.0,18.1,82,29.78,10.0,WSW,15.0,-,N/A,,Overcast,250,2013-03-20 03:14:00
11:34 PM,23.0,18.1,82,29.78,10.0,WSW,12.7,-,N/A,,Mostly Cloudy,250,2013-03-20 03:34:00
11:54 PM,22.3,18.0,83,29.78,10.0,WSW,12.7,-,N/A,,Scattered Clouds,250,2013-03-20 03:54:00